Stündliche Wetter Celejow

Heute, 19 Januar, Dienstag

Zeit Temperatur Niederschläge Wind Luftdruck Luftfeuchtigkeit
00:00 -15°C° 0 mm 2 m/S 749 mmHg 89%
01:00 -15°C° 0 mm 2 m/S 748 mmHg 88%
02:00 -14°C° 0 mm 2 m/S 748 mmHg 89%
03:00 -14°C° 0 mm 2 m/S 748 mmHg 89%
04:00 -15°C° 0 mm 3 m/S 747 mmHg 89%
05:00 -15°C° 0 mm 3 m/S 747 mmHg 90%
06:00 -14°C° 0 mm 3 m/S 747 mmHg 91%
07:00 -13°C° 0 mm 3 m/S 746 mmHg 92%
08:00 -12°C° 0.1 mm 3 m/S 746 mmHg 93%
09:00 -10°C° 0.1 mm 3 m/S 746 mmHg 93%
10:00 -10°C° 0.1 mm 4 m/S 746 mmHg 93%
11:00 -9°C° 0.2 mm 4 m/S 746 mmHg 94%
12:00 -8°C° 0.2 mm 4 m/S 745 mmHg 95%
13:00 -5°C° 0.2 mm 3 m/S 745 mmHg 95%
14:00 -5°C° 0.3 mm 3 m/S 745 mmHg 96%
15:00 -4°C° 0.3 mm 3 m/S 745 mmHg 97%
16:00 -4°C° 0.3 mm 3 m/S 744 mmHg 97%
17:00 -2°C° 0.1 mm 3 m/S 744 mmHg 97%
18:00 -2°C° 0.1 mm 3 m/S 744 mmHg 97%
19:00 -1°C° 0.1 mm 3 m/S 743 mmHg 97%
20:00 -3°C° 0.2 mm 4 m/S 743 mmHg 96%
21:00 -5°C° 0.2 mm 5 m/S 743 mmHg 96%
22:00 -6°C° 0.2 mm 5 m/S 743 mmHg 95%
23:00 -6°C° 0.1 mm 5 m/S 743 mmHg 95%

Morgen, 20 Januar, Mittwoch

Zeit Temperatur Niederschläge Wind Luftdruck Luftfeuchtigkeit
00:00 -6°C° 0.1 mm 5 m/S 742 mmHg 94%
01:00 -7°C° 0.1 mm 5 m/S 742 mmHg 93%
02:00 -6°C° 0.1 mm 5 m/S 742 mmHg 94%
03:00 -6°C° 0.1 mm 5 m/S 742 mmHg 94%
04:00 -6°C° 0.1 mm 5 m/S 741 mmHg 95%
05:00 -6°C° 0.4 mm 5 m/S 741 mmHg 95%
06:00 -5°C° 0.4 mm 5 m/S 741 mmHg 95%
07:00 -5°C° 0.4 mm 5 m/S 741 mmHg 95%
08:00 -4°C° 0.3 mm 5 m/S 741 mmHg 96%
09:00 -2°C° 0.3 mm 5 m/S 741 mmHg 97%
10:00 -1°C° 0.3 mm 4 m/S 741 mmHg 98%
11:00 -1°C° 0 mm 4 m/S 741 mmHg 99%
12:00 -1°C° 0 mm 4 m/S 741 mmHg 99%
13:00 0°C° 0 mm 4 m/S 741 mmHg 99%
14:00 0°C° 0 mm 5 m/S 741 mmHg 98%
15:00 0°C° 0 mm 5 m/S 741 mmHg 97%
16:00 -1°C° 0 mm 5 m/S 741 mmHg 96%
17:00 -1°C° 0 mm 5 m/S 741 mmHg 95%
18:00 -2°C° 0 mm 6 m/S 741 mmHg 93%
19:00 -2°C° 0 mm 6 m/S 741 mmHg 91%
20:00 -2°C° 0 mm 6 m/S 741 mmHg 90%
21:00 -2°C° 0 mm 6 m/S 741 mmHg 89%
22:00 -2°C° 0 mm 6 m/S 741 mmHg 87%
23:00 -2°C° 0 mm 6 m/S 741 mmHg 87%

übermorgen, 21 Januar, Donnerstag

Zeit Temperatur Niederschläge Wind Luftdruck Luftfeuchtigkeit
00:00 -2°C° 0 mm 6 m/S 741 mmHg 87%
01:00 -2°C° 0 mm 6 m/S 741 mmHg 87%
02:00 -2°C° 0 mm 6 m/S 741 mmHg 87%
03:00 -2°C° 0 mm 6 m/S 741 mmHg 87%
04:00 -2°C° 0 mm 6 m/S 741 mmHg 87%
05:00 -2°C° 0 mm 6 m/S 741 mmHg 87%
06:00 -2°C° 0 mm 6 m/S 740 mmHg 87%
07:00 -1°C° 0 mm 5 m/S 740 mmHg 87%
08:00 0°C° 0 mm 5 m/S 740 mmHg 89%
09:00 0°C° 0 mm 5 m/S 740 mmHg 92%
10:00 0°C° 0 mm 4 m/S 740 mmHg 94%
11:00 0°C° 0 mm 4 m/S 740 mmHg 96%
12:00 0°C° 0 mm 4 m/S 740 mmHg 97%
13:00 +1°C° 0 mm 4 m/S 740 mmHg 99%
14:00 0°C° 0 mm 4 m/S 739 mmHg 97%
15:00 0°C° 0 mm 4 m/S 739 mmHg 94%
16:00 0°C° 0 mm 4 m/S 738 mmHg 92%
17:00 0°C° 0 mm 4 m/S 738 mmHg 91%
18:00 0°C° 0 mm 4 m/S 738 mmHg 89%
19:00 -1°C° 0 mm 5 m/S 738 mmHg 87%
20:00 0°C° 0 mm 4 m/S 738 mmHg 88%
21:00 0°C° 0 mm 4 m/S 737 mmHg 89%
22:00 0°C° 0 mm 4 m/S 737 mmHg 90%
23:00 -1°C° 0 mm 4 m/S 737 mmHg 90%

22 Januar, Freitag

Zeit Temperatur Niederschläge Wind Luftdruck Luftfeuchtigkeit
00:00 -1°C° 0 mm 4 m/S 737 mmHg 90%
01:00 -1°C° 0 mm 4 m/S 737 mmHg 89%
02:00 -1°C° 0 mm 4 m/S 737 mmHg 89%
03:00 0°C° 0 mm 4 m/S 736 mmHg 88%
04:00 0°C° 0 mm 5 m/S 736 mmHg 88%
05:00 0°C° 0 mm 5 m/S 736 mmHg 88%
06:00 0°C° 0 mm 5 m/S 735 mmHg 88%
07:00 -1°C° 0 mm 6 m/S 735 mmHg 88%
08:00 +1°C° 0 mm 6 m/S 735 mmHg 89%
09:00 0°C° 0 mm 7 m/S 734 mmHg 90%
10:00 +2°C° 0 mm 7 m/S 734 mmHg 91%
11:00 +2°C° 0 mm 7 m/S 733 mmHg 90%
12:00 +2°C° 0 mm 8 m/S 733 mmHg 89%
13:00 +2°C° 0 mm 8 m/S 732 mmHg 87%
14:00 +3°C° 0 mm 7 m/S 732 mmHg 87%
15:00 +3°C° 0 mm 7 m/S 732 mmHg 86%
16:00 +3°C° 0 mm 6 m/S 732 mmHg 86%
17:00 +2°C° 0 mm 5 m/S 733 mmHg 87%
18:00 +2°C° 0 mm 5 m/S 733 mmHg 89%
19:00 +1°C° 0 mm 4 m/S 734 mmHg 90%
20:00 +2°C° 0 mm 3 m/S 734 mmHg 91%
21:00 +3°C° 0 mm 2 m/S 734 mmHg 92%
22:00 +2°C° 0 mm 2 m/S 735 mmHg 92%
23:00 +2°C° 0.6 mm 2 m/S 735 mmHg 94%

23 Januar, Samstag

Zeit Temperatur Niederschläge Wind Luftdruck Luftfeuchtigkeit
00:00 +2°C° 0.6 mm 2 m/S 735 mmHg 95%
01:00 +1°C° 0.6 mm 3 m/S 735 mmHg 97%
02:00 +1°C° 0.2 mm 3 m/S 736 mmHg 96%
03:00 0°C° 0.2 mm 3 m/S 736 mmHg 96%
04:00 0°C° 0.2 mm 3 m/S 736 mmHg 96%
05:00 0°C° 0 mm 3 m/S 736 mmHg 97%
06:00 +1°C° 0 mm 2 m/S 736 mmHg 97%
07:00 +1°C° 0 mm 2 m/S 736 mmHg 97%
08:00 +2°C° 0.3 mm 1 m/S 736 mmHg 98%
09:00 +2°C° 0.3 mm 1 m/S 737 mmHg 98%
10:00 +2°C° 0.3 mm 1 m/S 737 mmHg 99%
11:00 +2°C° 0.1 mm 1 m/S 737 mmHg 99%
12:00 +2°C° 0.1 mm 1 m/S 737 mmHg 99%
13:00 +2°C° 0.1 mm 1 m/S 737 mmHg 99%
14:00 +2°C° 0.1 mm 1 m/S 737 mmHg 99%
15:00 +2°C° 0.1 mm 1 m/S 737 mmHg 98%
16:00 +2°C° 0.1 mm 1 m/S 736 mmHg 98%
17:00 +2°C° 0 mm 1 m/S 736 mmHg 98%
18:00 +1°C° 0 mm 0 m/S 736 mmHg 98%
19:00 +1°C° 0 mm 0 m/S 736 mmHg 98%
20:00 +1°C° 0 mm 0 m/S 736 mmHg 98%
21:00 +1°C° 0 mm 1 m/S 736 mmHg 98%
22:00 +1°C° 0 mm 1 m/S 736 mmHg 98%
23:00 +1°C° 0 mm 1 m/S 736 mmHg 98%

24 Januar, Sonntag

Zeit Temperatur Niederschläge Wind Luftdruck Luftfeuchtigkeit
00:00 +1°C° 0 mm 1 m/S 735 mmHg 98%
01:00 +1°C° 0 mm 1 m/S 735 mmHg 98%
02:00 -1°C° 0 mm 2 m/S 735 mmHg 97%
03:00 -1°C° 0 mm 2 m/S 734 mmHg 97%
04:00 -1°C° 0 mm 2 m/S 734 mmHg 96%
05:00 -1°C° 0 mm 2 m/S 734 mmHg 95%
06:00 -1°C° 0 mm 2 m/S 733 mmHg 95%
07:00 -2°C° 0 mm 3 m/S 733 mmHg 94%
08:00 -1°C° 0 mm 3 m/S 733 mmHg 93%
09:00 0°C° 0 mm 3 m/S 733 mmHg 91%
10:00 0°C° 0 mm 3 m/S 733 mmHg 90%
11:00 +1°C° 0 mm 3 m/S 732 mmHg 89%
12:00 +1°C° 0 mm 3 m/S 732 mmHg 88%
13:00 +2°C° 0 mm 3 m/S 732 mmHg 87%
14:00 0°C° 0 mm 4 m/S 732 mmHg 87%
15:00 0°C° 0 mm 4 m/S 731 mmHg 88%
16:00 0°C° 0 mm 4 m/S 731 mmHg 88%
17:00 0°C° 0.4 mm 4 m/S 731 mmHg 91%
18:00 +1°C° 0.4 mm 3 m/S 731 mmHg 93%
19:00 +1°C° 0.4 mm 3 m/S 731 mmHg 96%
20:00 -1°C° 0.3 mm 4 m/S 731 mmHg 96%
21:00 -1°C° 0.3 mm 4 m/S 731 mmHg 96%
22:00 -1°C° 0.3 mm 5 m/S 732 mmHg 96%
23:00 -1°C° 0 mm 5 m/S 732 mmHg 95%
Mehr zeigen

Wir brauchen deine Erlaubnis

Meteoprog und unser Service Anbieter werden persönliche Daten aufbewahren, so wie Cookies, Geräte Bezeichnung oder ähnliche Technologien von deinem Gerät und Prozess, so wie Persönliche Daten Inhalte und Werbungen, genauso wie social Media und den Verkehr zu analysieren.

  • Aufbewahrung und/oder Zugang zu deiner Geräte Informationen.

    Cookies, Geräte Bezeichnung oder andere Informationen, können aufbewahrt oder Zugang zu deinem Gerät erhalten, für den Grund, der oben angegeben wird.

  • Personalisierte Werbung und Inhalte, Messungen, Einblick in das Publikum und Produkt Entwicklung.

    Werbungen und Inhalte können personalisiert werden, basierend auf ein Profil. Mehr Daten können besser personalisierte Werbungen und Inhalte hinzufügen. Werbung und Inhalte können gezeigt und gemessen werden. Einblicke über das Publikum, welche die Werbung gesehen haben und den Inhalt, können abgeleitet werden. So wie Daten können genutzt werden, um es zu verbessern oder die Benutzer Erfahrung zu verbessern das System und die Software.

Wenn du “Ich stimme zu” klickst, erlaubst du uns, die Cookies zu benutzen die Geräte Bezeichnung, den Web oder ähnliche Technologien zu benutzen. Deine Settings, können in deinem Gerät bei deinem Browser geändert werden.

Für den bestimmten Zweck, berechtigten Interessen beruhen darauf, mehr als auf den Inhalt. Du kannst mehr darüber in unseren Privaten und Cookie Politik lesen.